Content
SEND FEEDBACK

Daily
Averages
Monthly
Summary
United Kingdom

LONDON, ENGLAND


Home > Europe > United Kingdom > England
Elevation: 203 feet     Latitude: 51 09N     Longitude: 000 11W

WEATHER
 
SELECT A DAY
Number of Records: 294,488;   Date Range: 7/1/96 - 9/16/14
 
SHARE

PRINT THIS DATA

[ ← Previous Day ]
WEATHER ALMANAC - MARCH 29, 2014
[ Next Day → ]
[ °C ]   °F
Weather ElementAverageHighLow
Temperature53.1 °F64.4 °F (11:20 am)41 °F (6:20 am)
Dewpoint38.9 °F42.8 °F (7:20 am)32 °F (1:50 pm)
Humidity62.9 %93 % (2:50 am)32 % (12:50 pm)
Barometer29.94 in29.98 in (12:50 am)29.89 in (2:50 pm)
Wind Speed8.8 mph18.4 mph (12:50 pm)
Wind Gust25.3 mph (11:50 am)
Weather ElementAverage
Visibility2.6 mi
Wind DirectionE (93.6 °)

Weather ElementTotal
Precipitation---
Heating Degree Days12.3 (Base 65)
Growing Degree Days2.7 (Base 50)
Averaged from 47 records on March 29, 2014
WEATHER CONDITIONS BREAKOUT
WIND DIRECTION BREAKOUT
WEATHER BY HOUR - MARCH 29, 2014
[ °C ]   °F
Local TimeTemperatureDewpointHumidityBarometerVisibilityWind DirectionWind SpeedGust SpeedPrecipitationEventsConditions
12:50 AM44.6 °F39.2 °F81 %29.98 inEast (80°)6.9 mphHaze
1:20 AM42.8 °F39.2 °F87 %29.98 inEast (80°)6.9 mphHaze
1:50 AM42.8 °F39.2 °F87 %29.98 inENE (70°)5.8 mphHaze
2:20 AM42.8 °F39.2 °F87 %29.98 in1.7 miENE (70°)5.8 mphHaze
2:50 AM42.8 °F41.0 °F93 %29.98 in1.7 miENE (70°)4.6 mphHaze
3:20 AM44.6 °F41.0 °F87 %29.98 in1.6 miEast (80°)6.9 mphHaze
3:50 AM44.6 °F41.0 °F87 %29.95 in1.5 miEast (80°)6.9 mphHaze
4:20 AM44.6 °F41.0 °F87 %29.95 in1.6 miEast (80°)3.5 mphHaze
4:50 AM44.6 °F41.0 °F87 %29.95 in1.4 miENE (70°)5.8 mphHaze
5:20 AM44.6 °F41.0 °F87 %29.95 in1.5 miEast (80°)4.6 mphHaze
5:50 AM42.8 °F41.0 °F93 %29.98 in1.4 miEast (80°)6.9 mphHaze
6:20 AM41.0 °F39.2 °F93 %29.98 in1.4 miEast (90°)5.8 mphHaze
6:50 AM42.8 °F41.0 °F93 %29.98 in1.4 miEast (80°)6.9 mphHaze
7:20 AM46.4 °F42.8 °F87 %29.98 inEast (80°)5.8 mphHaze
7:50 AM48.2 °F42.8 °F82 %29.98 inENE (70°)8.1 mphHaze
8:20 AM51.8 °F42.8 °F71 %29.98 in3.1 miENE (70°)6.9 mphHaze
8:50 AM55.4 °F42.8 °F63 %29.98 in3.7 miEast (90°)10.4 mph
9:20 AM57.2 °F42.8 °F59 %29.98 in3.7 miEast (100°)10.4 mph
9:50 AM60.8 °F42.8 °F52 %29.95 inEast (100°)10.4 mphClear
10:20 AM60.8 °F37.4 °F42 %29.95 inESE (120°)12.7 mphClear
10:50 AM62.6 °F39.2 °F42 %29.95 inESE (110°)12.7 mphClear
11:20 AM64.4 °F39.2 °F40 %29.95 inEast (100°)12.7 mphClear
11:50 AM64.4 °F35.6 °F34 %29.95 inESE (110°)13.8 mph25.3 mphClear
12:20 PM64.4 °F37.4 °F37 %29.92 inEast (100°)15.0 mphClear
12:50 PM64.4 °F33.8 °F32 %29.92 inESE (110°)18.4 mphClear
1:20 PM64.4 °F33.8 °F32 %29.92 inESE (110°)17.3 mphClear
1:50 PM62.6 °F32.0 °F32 %29.92 inESE (120°)16.1 mphClear
2:20 PM62.6 °F32.0 °F32 %29.92 inSE (140°)13.8 mphClear
2:50 PM62.6 °F33.8 °F34 %29.89 inSE (130°)16.1 mphClear
3:20 PM62.6 °F33.8 °F34 %29.89 inSE (130°)18.4 mphClear
3:50 PM62.6 °F35.6 °F37 %29.89 inESE (120°)15.0 mphClear
4:20 PM62.6 °F33.8 °F34 %29.89 inSE (130°)12.7 mphClear
4:50 PM62.6 °F37.4 °F39 %29.89 inSE (140°)12.7 mphClear
5:20 PM60.8 °F37.4 °F42 %29.89 inSE (130°)9.2 mphClear
5:50 PM59.0 °F35.6 °F42 %29.92 inESE (120°)8.1 mphClear
6:20 PM57.2 °F35.6 °F44 %29.92 inESE (110°)4.6 mphClear
6:50 PM53.6 °F37.4 °F54 %29.92 inEast (80°)4.6 mphClear
7:20 PM53.6 °F39.2 °F58 %29.92 inEast (90°)6.9 mphClear
7:50 PM51.8 °F41.0 °F67 %29.92 inEast (90°)6.9 mphClear
8:20 PM50.0 °F39.2 °F66 %29.92 inEast (80°)4.6 mphClear
8:50 PM51.8 °F41.0 °F67 %29.92 inEast (80°)4.6 mphClear
9:20 PM50.0 °F41.0 °F71 %29.92 inEast (80°)5.8 mphClear
9:50 PM48.2 °F41.0 °F76 %29.92 inENE (70°)4.6 mphClear
10:20 PM50.0 °F41.0 °F71 %29.92 in5.0 miENE (70°)3.5 mph
10:50 PM48.2 °F41.0 °F76 %29.92 in5.0 miEast (80°)3.5 mph
11:20 PM48.2 °F41.0 °F76 %29.92 in4.3 miENE (60°)3.5 mph
11:50 PM44.6 °F39.2 °F81 %29.92 in4.3 miENE (70°)4.6 mph
Hourly data recorded from EGKK, located miles away from London, England







STORIES FROM OUR PARTNERS